Location: Le Petit-Vavre
(46.5081°N, 1.5239°E)
Time: 06:18:45
(UTC+00:00)

CSL-04 DEB - Pass Details

Date: 03 March 2021
Orbit: 546 x 626 km, 98.8° (Epoch: 18 April)

Event Time Altitude Azimuth Distance (km) Brightness Sun altitude
Rises 18:13:01 0° 14° (NNE) 2,731 7.7 -6.0°
Reaches altitude 10° 18:15:08 10° 15° (NNE) 1,838 6.8 -6.3°
Maximum altitude 18:19:06 90° 79° (E) 564 4.4 -7.0°
Drops below altitude 10° 18:23:07 10° 196° (SSW) 1,855 7.2 -7.7°
Sets 18:25:16 0° 196° (SSW) 2,759 8.1 -8.1°
